Tracking 31027 objects as of 19-Jul-2025
HD Live streaming from Space Station
objects crossing your sky now

SL-8 R/B

Track SL-8 R/B now!
10-day predictions


NORAD ID: 23190
Int'l Code: 1994-045B
Perigee: 976.3 km
Apogee: 1,006.0 km
Inclination: 74.0 °
Period: 104.8 minutes
Semi major axis: 7362 km
RCS: 5.279 m2 (large)
Launch date: August 2, 1994
Source: Commonwealth of Independent States (former USSR) (CIS)
Launch site: PLESETSK MISSILE AND SPACE COMPLEX (PKMTR)

Note: This is a ROCKET BODY
Your satellite tracking list
FLOCK 4V 13
Track 1 satellite(s)




NASA's NSSDC Master Catalog

Two Line Element Set (TLE):
1 23190U 94045B   25199.49377302 -.00000020  00000-0  27446-5 0  9999
2 23190  74.0268 248.0039 0020156 289.1665  70.7272 13.74343215552641
Source of the keplerian elements: AFSPC